Tracking 19146 objects as of 23-Apr-2018
HD Live streaming from Space Station
objects crossing your sky now

GLOBALSTAR M097

Track GLOBALSTAR M097 now!
10-day predictions
GLOBALSTAR M097 is classified as:


NORAD ID: 39072
Int'l Code: 2013-005A
Perigee: 1,420.5 km
Apogee: 1,421.0 km
Inclination: 52.0 °
Period: 114.1 minutes
Semi major axis: 7791 km
RCS: 3.8399 m2 (large)
Launch date: February 6, 2013
Source: Globalstar (GLOB)
Launch site: TYURATAM MISSILE AND SPACE COMPLEX (TTMTR)

GLOBALSTAR M097 is part of Globalstar's second-generation satellite fleet, which began launching in 2010.
aabbcc
Your satellite tracking list
Your tracking list is empty




NASA's NSSDC Master Catalog

Two Line Element Set (TLE):
1 39072U 13005A   18112.60486502 -.00000092 +00000-0 +64501-4 0  9996
2 39072 052.0046 307.4276 0000324 126.5136 233.5760 12.62265860240956
Source of the keplerian elements: AFSPC